Location: Stony Plain
(53.5279°N, 114.0019°W)
Time: 09:28:39
(UTC-06:00)

ISS - Visible Passes

Search period start: 18 March 2019 00:00
Search period end: 28 March 2019 00:00
Orbit: 406 x 411 km, 51.6° (Epoch: 18 March)

Date Brightness Start Highest point End Pass type
(mag) Time Alt. Az. Time Alt. Az. Time Alt. Az.
21 Mar -1.4 21:12:49 10° SSE 21:12:51 10° SSE 21:12:51 10° SSE visible
22 Mar -1.8 21:56:08 10° SW 21:57:24 19° SSW 21:57:24 19° SSW visible
23 Mar -2.3 21:05:37 10° SSW 21:08:08 20° SSE 21:08:59 18° SE visible
23 Mar -1.3 22:41:01 10° WSW 22:41:45 15° WSW 22:41:45 15° WSW visible
24 Mar -3.3 21:50:06 10° SW 21:53:08 42° SSE 21:53:08 42° SSE visible
25 Mar -2.9 20:59:16 10° SW 21:02:15 32° SSE 21:04:22 16° E visible
25 Mar -2.2 22:35:17 10° WSW 22:37:07 30° WSW 22:37:07 30° WSW visible
26 Mar -3.7 21:44:15 10° WSW 21:47:29 56° S 21:48:14 43° ESE visible
26 Mar -0.8 23:20:39 10° W 23:20:58 12° W 23:20:58 12° W visible
27 Mar -3.4 20:53:14 10° WSW 20:56:26 47° SSE 20:59:16 12° E visible
27 Mar -2.9 22:29:33 10° W 22:32:00 43° WSW 22:32:00 43° WSW visible
